Location: Lake Zurich
(42.1970°N, 88.0930°W)
Time: 18:32:16
(UTC-05:00)

Amateur Radio Satellites - All Passes

Search period start: 29 June 2016 18:02
Search period end: 30 June 2016 18:02
Location: Lake Zurich, 42.1970°N, 88.0930°W

Satellite Date Start Highest point End Downlink Frequencies (MHz)
Time Altitude Azimuth
NOAA 18 29 Jun 18:04:17 18:09:42 72° 72° (ENE) 18:15:12 137.9125
BRITE-PL 29 Jun 18:05:32 18:10:35 85° 78° (ENE) 18:15:15 437.365/2234.400
CUBESAT XI-V 29 Jun 18:23:48 18:28:27 89° 266° (W) 18:33:02 437.345
Cosmos 2499 29 Jun 18:24:02 18:31:45 44° 87° (E) 18:39:54 435.465 / 435.565
AIST 1 29 Jun 18:28:48 18:31:33 16° 290° (WNW) 18:34:19
MOZHAYETS 4 29 Jun 18:32:57 18:34:15 11° 300° (WNW) 18:35:34
GOMX 1 29 Jun 18:33:40 18:38:15 74° 75° (ENE) 18:42:34 467.674
CUTE-I 29 Jun 18:34:42 18:40:01 70° 258° (WSW) 18:45:24 437.470
HO-68 29 Jun 18:39:32 18:45:12 26° 58° (ENE) 18:50:54 435.675
CINEMA 3 29 Jun 18:41:15 18:42:24 11° 61° (ENE) 18:43:34 145.822/145.860
CUSAT 1 29 Jun 18:54:57 18:58:27 54° 265° (W) 19:01:17 437.405
NOAA 15 29 Jun 19:00:05 19:04:41 30° 264° (W) 19:09:18 137.62
RS-15 29 Jun 19:06:33 19:17:56 40° 36° (NE) 19:29:18 29.354- 29.394
COMPASS 1 29 Jun 19:12:05 19:13:21 11° 62° (ENE) 19:14:36 437.405
CANX-2 29 Jun 19:12:28 19:15:58 25° 68° (ENE) 19:19:29 2200.000
GONETS M04 29 Jun 19:15:59 19:24:38 68° 281° (W) 19:33:19
DANDE 29 Jun 19:28:10 19:33:04 75° 262° (W) 19:36:40 436.750
DOVE 4 29 Jun 19:28:12 19:32:29 62° 260° (W) 19:36:38 437.250
CUTE 1.7 + AOD 2 29 Jun 19:31:46 19:35:40 34° 70° (ENE) 19:39:34 437.475
LilacSat-2 29 Jun 19:32:04 19:34:00 14° 269° (W) 19:35:57 437.200
SEEDS 29 Jun 19:33:54 19:37:27 27° 69° (ENE) 19:41:02 437.485
Cubesat XI-IV 29 Jun 19:42:53 19:46:28 18° 268° (W) 19:50:07 437.490
AUBIESAT-1 29 Jun 19:46:21 19:47:26 11° 58° (ENE) 19:48:30 437.475
NOAA 18 29 Jun 19:47:48 19:50:54 15° 270° (W) 19:54:02 137.9125
BRITE-PL 29 Jun 19:49:05 19:49:30 10° 271° (W) 19:49:56 437.365/2234.400
CUBEBUG 2 29 Jun 20:04:13 20:07:43 27° 68° (ENE) 20:11:18 437.445
CUBESAT XI-V 29 Jun 20:04:21 20:05:04 10° 301° (WNW) 20:05:46 437.345
AAUSAT CUBESAT 2 29 Jun 20:09:09 20:12:59 36° 71° (ENE) 20:16:50 437.432
STRAND 1 29 Jun 20:13:15 20:18:26 77° 104° (ESE) 20:23:34 437.568
CINEMA 3 29 Jun 20:14:51 20:18:58 68° 259° (W) 20:23:08 145.822/145.860
Cosmos 2499 29 Jun 20:17:00 20:24:52 43° 288° (WNW) 20:33:12 435.465 / 435.565
M-CUBED/EXP-1 PRIME 29 Jun 20:24:33 20:27:38 40° 67° (ENE) 20:30:44 437.505
HO-68 29 Jun 20:25:15 20:32:21 66° 257° (WSW) 20:39:31 435.675
ZACube-1 29 Jun 20:25:23 20:28:35 21° 66° (ENE) 20:31:50 437.345
Oscar 11 29 Jun 20:32:18 20:35:59 27° 68° (ENE) 20:39:40 145.826/435.025
FUNcube-1 29 Jun 20:41:41 20:45:21 29° 69° (ENE) 20:49:04 145.935
COMPASS 1 29 Jun 20:44:06 20:48:19 72° 259° (W) 20:52:32 437.405
CANX-2 29 Jun 20:47:57 20:51:42 29° 264° (W) 20:55:30 2200.000
UWE-3 29 Jun 20:48:13 20:52:18 55° 74° (ENE) 20:56:32 435.000/436.395/437.385
AO-85 29 Jun 20:51:11 20:56:06 36° 115° (ESE) 21:00:54 145.980
PRISM 29 Jun 20:53:40 20:57:16 29° 97° (E) 21:00:49 437.425
CUTE 1.7 + AOD 2 29 Jun 21:08:19 21:11:35 21° 267° (W) 21:14:51 437.475
SEEDS 29 Jun 21:09:28 21:13:05 27° 265° (W) 21:16:44 437.485
AUBIESAT-1 29 Jun 21:18:24 21:21:33 43° 255° (WSW) 21:24:45 437.475
GONETS M04 29 Jun 21:19:18 21:23:21 14° 304° (NW) 21:27:26
RS-15 29 Jun 21:19:21 21:31:41 78° 242° (WSW) 21:43:52 29.354- 29.394
HUMSAT D 29 Jun 21:27:03 21:30:21 23° 67° (ENE) 21:33:41 437.325/437.525
CUBEBUG 2 29 Jun 21:40:47 21:44:17 26° 265° (W) 21:47:53 437.445
DELFI C3 29 Jun 21:44:51 21:48:53 77° 75° (ENE) 21:52:56 145.870
AAUSAT CUBESAT 2 29 Jun 21:45:32 21:48:34 19° 267° (W) 21:51:38 437.432
STRAND 1 29 Jun 21:54:10 21:56:57 15° 301° (WNW) 21:59:43 437.568
ZACube-1 29 Jun 22:00:48 22:04:39 34° 263° (W) 22:08:36 437.345
TIGRISAT 29 Jun 22:01:50 22:03:50 12° 90° (E) 22:05:49 435.000
M-CUBED/EXP-1 PRIME 29 Jun 22:02:14 22:02:27 10° 263° (W) 22:02:41 437.505
UNISAT 6 29 Jun 22:06:48 22:09:32 15° 91° (E) 22:12:16 437.425
Oscar 11 29 Jun 22:08:20 22:12:02 27° 265° (W) 22:15:47 145.826/435.025
FUNcube-1 29 Jun 22:18:08 22:21:35 24° 266° (W) 22:25:07 145.935
CUBEBUG 1 29 Jun 22:22:57 22:24:45 12° 62° (ENE) 22:26:34 437.445
UWE-3 29 Jun 22:27:18 22:29:10 13° 271° (W) 22:31:04 435.000/436.395/437.385
PRISM 29 Jun 22:29:12 22:32:26 23° 293° (WNW) 22:35:38 437.425
AO-85 29 Jun 22:31:35 22:36:36 37° 311° (NW) 22:41:26 145.980
VELOX 1 29 Jun 22:33:47 22:36:21 15° 63° (ENE) 22:38:55 145.980
ANTELSAT 29 Jun 22:45:17 22:49:39 37° 98° (E) 22:53:59 437.575/2403.000
Cosmos 2491 29 Jun 22:49:04 22:51:34 11° 72° (ENE) 22:54:03 435.465 / 435.565
HUMSAT D 29 Jun 23:02:05 23:05:48 31° 264° (W) 23:09:35 437.325/437.525
SPROUT 29 Jun 23:06:28 23:08:41 14° 63° (ENE) 23:10:54 437.525
UKube-1 29 Jun 23:06:30 23:09:43 21° 65° (ENE) 23:12:57 .
AISAT 29 Jun 23:12:59 23:17:04 39° 70° (ENE) 23:21:11 437.250
ESTCUBE 1 29 Jun 23:14:09 23:18:38 63° 74° (ENE) 23:23:08 437.505/2401.250
YUBILEINY 29 Jun 23:27:34 23:36:07 50° 75° (ENE) 23:44:36 435.215
DX 1 29 Jun 23:28:00 23:32:07 43° 71° (ENE) 23:36:13 434.975-435.025
RS-15 29 Jun 23:34:22 23:42:05 20° 263° (W) 23:49:47 29.354- 29.394
TIGRISAT 29 Jun 23:36:18 23:40:57 69° 286° (WNW) 23:45:36 435.000
NANOSAT C BR1 29 Jun 23:37:18 23:40:30 20° 94° (E) 23:43:42 145.865
50 SAT 29 Jun 23:37:27 23:41:09 77° 77° (ENE) 23:44:54 437.505
QB50P1 29 Jun 23:40:56 23:44:23 24° 95° (E) 23:47:49 145.935-145.965
UNISAT 6 29 Jun 23:41:59 23:46:34 57° 287° (WNW) 23:51:09 437.425
Cosmos 2504 29 Jun 23:43:40 23:50:10 22° 62° (ENE) 23:56:28 435.465 / 435.565
POPSAT HIP 1 29 Jun 23:44:14 23:47:46 25° 95° (E) 23:51:19 437.405
SO-50 29 Jun 23:51:27 23:55:50 38° 49° (NE) 00:00:05 436.795
CUBEBUG 1 29 Jun 23:56:09 00:00:29 68° 258° (WSW) 00:04:49 437.445
QB50P2 29 Jun 23:56:36 00:00:35 37° 98° (E) 00:04:32 145.880/145.840
DUCHIFAT 1 29 Jun 23:56:43 00:00:31 31° 97° (E) 00:04:18 145.980
POLYITAN 1 29 Jun 23:59:13 00:03:13 38° 98° (E) 00:07:13 437.675
JAS-2 30 Jun 00:07:03 00:08:10 11° 85° (E) 00:09:18 435.910
VELOX 1 30 Jun 00:08:03 00:12:22 55° 259° (W) 00:16:43 145.980
TISAT 1 30 Jun 00:20:18 00:23:32 22° 67° (ENE) 00:26:47 437.305
ANTELSAT 30 Jun 00:22:25 00:26:08 24° 294° (WNW) 00:29:52 437.575/2403.000
Cosmos 2491 30 Jun 00:37:56 00:46:34 66° 93° (E) 00:55:12 435.465 / 435.565
SPROUT 30 Jun 00:39:59 00:44:09 56° 260° (W) 00:48:21 437.525
UKube-1 30 Jun 00:41:33 00:45:31 36° 262° (W) 00:49:32 .
BUGSAT 1 30 Jun 00:46:26 00:50:26 50° 100° (E) 00:54:29 437.445
AISAT 30 Jun 00:50:32 00:53:41 19° 267° (W) 00:56:52 437.250
ESTCUBE 1 30 Jun 00:53:46 00:55:51 13° 270° (W) 00:57:56 437.505/2401.250
DX 1 30 Jun 01:05:35 01:08:30 17° 267° (W) 01:11:24 434.975-435.025
NANOSAT C BR1 30 Jun 01:12:27 01:16:19 35° 290° (WNW) 01:20:10 145.865
QB50P1 30 Jun 01:16:26 01:20:10 30° 291° (WNW) 01:23:54 145.935-145.965
POPSAT HIP 1 30 Jun 01:19:51 01:23:31 29° 291° (WNW) 01:27:11 437.405
YUBILEINY 30 Jun 01:24:48 01:32:38 37° 275° (W) 01:40:27 435.215
SWISSCUBE 30 Jun 01:28:20 01:32:25 29° 67° (ENE) 01:36:31 437.505
SO-50 30 Jun 01:32:17 01:36:08 26° 247° (WSW) 01:39:54 436.795
DUCHIFAT 1 30 Jun 01:32:42 01:36:04 23° 293° (WNW) 01:39:25 145.980
QB50P2 30 Jun 01:33:00 01:36:08 20° 294° (WNW) 01:39:17 145.880/145.840
POLYITAN 1 30 Jun 01:35:39 01:38:46 20° 294° (WNW) 01:41:53 437.675
Cosmos 2504 30 Jun 01:35:50 01:44:46 87° 265° (W) 01:53:17 435.465 / 435.565
BEESAT 2 30 Jun 01:39:38 01:40:57 11° 108° (ESE) 01:42:16 435.950
PCSat 30 Jun 01:40:17 01:45:24 44° 112° (ESE) 01:50:32 145.827
JAS-2 30 Jun 01:48:36 01:54:15 86° 286° (WNW) 01:59:28 435.910
O/OREOS (USA 219) 30 Jun 01:49:12 01:52:34 21° 102° (ESE) 01:55:55 437.305
BEESAT 30 Jun 01:52:54 01:57:26 44° 70° (ENE) 02:01:59 436.000
Oscar 19 30 Jun 01:53:49 01:58:39 40° 98° (E) 02:03:27 437.125/150
ITUPSAT 1 30 Jun 01:54:55 01:59:29 45° 70° (ENE) 02:04:05 437.325
TISAT 1 30 Jun 01:55:19 01:59:01 31° 263° (W) 02:02:45 437.305
KKS-1 30 Jun 02:21:19 02:21:52 10° 59° (ENE) 02:22:25 437.445
ITAMSAT 1 30 Jun 02:22:41 02:23:50 11° 88° (E) 02:25:00 435.822/435.867
Gurwin Techsat 1B 30 Jun 02:23:00 02:27:49 33° 96° (E) 02:32:36 435.225
BUGSAT 1 30 Jun 02:23:08 02:25:25 15° 296° (WNW) 02:27:43 437.445
BEESAT 3 30 Jun 02:33:18 02:37:12 85° 122° (ESE) 02:41:10 437.485
Cosmos 2491 30 Jun 02:36:50 02:44:05 28° 293° (WNW) 02:51:21 435.465 / 435.565
AO-7 30 Jun 02:44:59 02:45:28 10° 85° (E) 02:45:57 29.400- 29.500
STARS 30 Jun 02:49:35 02:49:45 10° 59° (ENE) 02:49:56 437.465
AIST 1 30 Jun 02:57:59 02:59:27 11° 68° (ENE) 03:00:54
SWISSCUBE 30 Jun 03:05:50 03:10:06 32° 263° (W) 03:14:25 437.505
BEESAT 2 30 Jun 03:14:19 03:18:14 64° 304° (NW) 03:22:13 435.950
PCSat 30 Jun 03:24:12 03:28:56 30° 311° (NW) 03:33:42 145.827
O/OREOS (USA 219) 30 Jun 03:27:30 03:31:42 38° 299° (WNW) 03:35:54 437.305
Cosmos 2504 30 Jun 03:31:23 03:36:45 18° 284° (WNW) 03:42:00 435.465 / 435.565
GONETS M04 30 Jun 03:31:44 03:35:18 13° 55° (NE) 03:38:51
BEESAT 30 Jun 03:31:53 03:35:24 20° 267° (W) 03:38:56 436.000
Oscar 19 30 Jun 03:33:35 03:37:45 26° 295° (WNW) 03:41:56 437.125/150
ITUPSAT 1 30 Jun 03:34:03 03:37:32 20° 267° (W) 03:41:03 437.325
JAS-2 30 Jun 03:36:14 03:38:19 12° 306° (NW) 03:40:21 435.910
KKS-1 30 Jun 03:53:18 03:57:44 87° 255° (WSW) 04:02:12 437.445
CUBESAT XI-V 30 Jun 03:53:54 03:55:10 11° 60° (ENE) 03:56:26 437.345
MOZHAYETS 4 30 Jun 03:55:05 03:59:42 85° 78° (ENE) 04:04:23
ITAMSAT 1 30 Jun 03:58:44 04:04:00 90° 115° (ESE) 04:09:14 435.822/435.867
Gurwin Techsat 1B 30 Jun 04:03:01 04:07:42 32° 293° (WNW) 04:12:22 435.225
AIST 2 30 Jun 04:10:21 04:13:49 26° 114° (ESE) 04:17:17 435.215
BEESAT 3 30 Jun 04:13:37 04:15:27 13° 321° (NW) 04:17:18 437.485
Cosmos 2499 30 Jun 04:15:56 04:21:14 17° 58° (ENE) 04:26:22 435.465 / 435.565
STARS 30 Jun 04:21:03 04:25:25 86° 258° (WSW) 04:29:48 437.465
AO-7 30 Jun 04:31:32 04:39:52 62° 104° (ESE) 04:48:06 29.400- 29.500
AIST 1 30 Jun 04:33:17 04:37:30 62° 264° (W) 04:41:41
HORYU 2 30 Jun 05:09:30 05:13:24 28° 96° (E) 05:17:17 437.375
AO-85 30 Jun 05:22:55 05:27:03 32° 46° (NE) 05:30:52 145.980
GONETS M04 30 Jun 05:25:29 05:34:09 64° 78° (ENE) 05:42:49
CUBESAT XI-V 30 Jun 05:27:06 05:31:49 88° 257° (WSW) 05:36:33 437.345
NOAA 15 30 Jun 05:36:44 05:38:37 12° 89° (E) 05:40:31 137.62
ITAMSAT 1 30 Jun 05:40:23 05:42:41 13° 302° (WNW) 05:45:00 435.822/435.867
AIST 2 30 Jun 05:48:29 05:52:11 31° 311° (NW) 05:55:55 435.215
STRAND 1 30 Jun 05:53:07 05:56:06 16° 60° (ENE) 05:59:06 437.568
PHONESAT 2.4 30 Jun 06:06:26 06:08:47 20° 155° (SSE) 06:11:07 2401.200-2431.200
Cosmos 2499 30 Jun 06:07:12 06:16:02 78° 81° (E) 06:24:16 435.465 / 435.565
BRITE-PL 30 Jun 06:10:21 06:13:35 22° 94° (E) 06:16:51 437.365/2234.400
CUSAT 1 30 Jun 06:14:08 06:19:34 22° 88° (E) 06:24:25 437.405
Cubesat XI-IV 30 Jun 06:18:11 06:22:23 23° 93° (E) 06:26:33 437.490
AO-7 30 Jun 06:24:58 06:32:08 33° 303° (WNW) 06:39:17 29.400- 29.500
NOAA 18 30 Jun 06:26:12 06:31:00 29° 96° (E) 06:35:45 137.9125
GOMX 1 30 Jun 06:35:14 06:38:15 19° 94° (E) 06:41:20 467.674
HORYU 2 30 Jun 06:46:03 06:49:53 28° 293° (WNW) 06:53:43 437.375
CUTE-I 30 Jun 06:51:19 06:56:29 45° 99° (E) 07:01:37 437.470
DANDE 30 Jun 06:51:36 06:57:56 25° 86° (E) 07:03:51 436.750
LilacSat-2 30 Jun 07:02:39 07:06:31 60° 101° (E) 07:10:21 437.200
AO-85 30 Jun 07:03:36 07:07:25 28° 247° (WSW) 07:10:58 145.980
NOAA 15 30 Jun 07:13:46 07:19:03 84° 285° (WNW) 07:24:17 137.62
GONETS M04 30 Jun 07:23:17 07:30:17 28° 278° (W) 07:37:19
ISS 30 Jun 07:25:03 07:27:13 17° 132° (SE) 07:29:23 145.825
DOVE 4 30 Jun 07:25:58 07:29:51 30° 97° (E) 07:33:54 437.250
STRAND 1 30 Jun 07:29:32 07:34:40 72° 258° (WSW) 07:39:51 437.568
PHONESAT 2.4 30 Jun 07:42:02 07:45:03 54° 171° (S) 07:48:03 2401.200-2431.200
PRISM 30 Jun 07:43:43 07:47:03 24° 67° (ENE) 07:50:23 437.425
BRITE-PL 30 Jun 07:48:32 07:52:09 30° 290° (WNW) 07:55:48 437.365/2234.400
HO-68 30 Jun 07:53:11 07:58:49 24° 93° (E) 08:04:24 435.675
CUSAT 1 30 Jun 07:53:37 08:01:18 72° 280° (W) 08:07:39 437.405
Cubesat XI-IV 30 Jun 07:57:31 08:02:41 48° 290° (WNW) 08:07:49 437.490
Cosmos 2499 30 Jun 08:01:50 08:08:04 23° 282° (WNW) 08:14:05 435.465 / 435.565
NOAA 18 30 Jun 08:06:34 08:11:44 40° 292° (WNW) 08:16:51 137.9125
CINEMA 3 30 Jun 08:08:35 08:12:31 27° 95° (E) 08:16:34 145.822/145.860
GOMX 1 30 Jun 08:12:35 08:16:30 37° 288° (WNW) 08:20:32 467.674
COMPASS 1 30 Jun 08:27:31 08:30:18 17° 92° (E) 08:33:04 437.405
DANDE 30 Jun 08:31:46 08:40:13 76° 281° (W) 08:47:50 436.750
CANX-2 30 Jun 08:31:54 08:36:02 44° 98° (E) 08:40:06 2200.000
CUTE-I 30 Jun 08:31:56 08:36:15 25° 296° (WNW) 08:40:33 437.470
UWE-3 30 Jun 08:39:02 08:40:50 12° 89° (E) 08:42:39 435.000/436.395/437.385
LilacSat-2 30 Jun 08:39:08 08:40:18 11° 297° (WNW) 08:41:28 437.200
CUTE 1.7 + AOD 2 30 Jun 08:51:27 08:55:44 64° 101° (ESE) 08:59:56 437.475
SEEDS 30 Jun 08:52:08 08:56:14 46° 99° (E) 09:00:17 437.485
NOAA 15 30 Jun 08:56:05 08:57:59 12° 303° (WNW) 08:59:53 137.62
ISS 30 Jun 09:00:08 09:03:21 60° 329° (NNW) 09:06:36 145.825
TIGRISAT 30 Jun 09:02:04 09:03:33 12° 60° (ENE) 09:05:01 435.000
DOVE 4 30 Jun 09:03:53 09:07:28 25° 291° (WNW) 09:11:11 437.250
UNISAT 6 30 Jun 09:06:58 09:09:14 14° 62° (ENE) 09:11:30 437.425
PHONESAT 2.4 30 Jun 09:18:30 09:21:31 56° 188° (S) 09:24:33 2401.200-2431.200
PRISM 30 Jun 09:18:36 09:22:14 29° 263° (W) 09:25:52 437.425
AAUSAT CUBESAT 2 30 Jun 09:25:54 09:30:03 62° 101° (E) 09:34:08 437.432
CUBEBUG 2 30 Jun 09:29:41 09:34:17 60° 100° (E) 09:38:57 437.445
M-CUBED/EXP-1 PRIME 30 Jun 09:36:23 09:39:59 32° 104° (ESE) 09:43:47 437.505
RS-15 30 Jun 09:37:59 09:43:24 15° 94° (E) 09:48:55 29.354- 29.394
HO-68 30 Jun 09:39:54 09:47:02 66° 291° (WNW) 09:54:08 435.675
CUSAT 1 30 Jun 09:40:51 09:44:02 13° 296° (WNW) 09:47:00 437.405
ANTELSAT 30 Jun 09:44:45 09:48:37 33° 69° (ENE) 09:52:36 437.575/2403.000
CINEMA 3 30 Jun 09:45:35 09:49:37 32° 290° (WNW) 09:53:48 145.822/145.860
ZACube-1 30 Jun 09:47:56 09:52:17 42° 98° (E) 09:56:38 437.345
Oscar 11 30 Jun 09:54:14 09:58:30 50° 100° (E) 10:02:43 145.826/435.025
BEESAT 2 30 Jun 09:55:45 09:57:23 12° 38° (NE) 09:58:59 435.950
COMPASS 1 30 Jun 10:02:06 10:06:02 40° 288° (WNW) 10:09:56 437.405
FUNcube-1 30 Jun 10:04:20 10:08:51 60° 100° (E) 10:13:23 145.935
CANX-2 30 Jun 10:08:42 10:11:32 17° 295° (WNW) 10:14:20 2200.000
UWE-3 30 Jun 10:13:08 10:17:44 70° 285° (WNW) 10:22:23 435.000/436.395/437.385
DANDE 30 Jun 10:18:55 10:24:00 17° 297° (WNW) 10:28:46 436.750
PCSat 30 Jun 10:27:28 10:32:36 41° 52° (NE) 10:37:41 145.827
SEEDS 30 Jun 10:28:55 10:31:34 16° 295° (WNW) 10:34:12 437.485
CUTE 1.7 + AOD 2 30 Jun 10:29:10 10:31:00 13° 298° (WNW) 10:32:51 437.475
AUBIESAT-1 30 Jun 10:29:30 10:33:29 77° 289° (WNW) 10:37:44 437.475
NANOSAT C BR1 30 Jun 10:30:33 10:33:14 17° 65° (ENE) 10:35:56 145.865
QB50P1 30 Jun 10:34:19 10:37:20 19° 66° (ENE) 10:40:21 145.935-145.965
TIGRISAT 30 Jun 10:35:17 10:39:34 74° 258° (WSW) 10:44:00 435.000
POPSAT HIP 1 30 Jun 10:37:36 10:40:43 21° 66° (ENE) 10:43:51 437.405
ISS 30 Jun 10:37:54 10:40:18 18° 348° (NNW) 10:42:42 145.825
UNISAT 6 30 Jun 10:41:09 10:45:24 60° 259° (W) 10:49:47 437.425
HUMSAT D 30 Jun 10:44:29 10:48:33 39° 98° (E) 10:52:34 437.325/437.525
Cosmos 2491 30 Jun 10:48:00 10:55:42 33° 69° (ENE) 11:03:21 435.465 / 435.565
DUCHIFAT 1 30 Jun 10:49:20 10:52:44 25° 68° (ENE) 10:56:08 145.980
QB50P2 30 Jun 10:49:48 10:53:27 29° 69° (ENE) 10:57:07 145.880/145.840
BEESAT 3 30 Jun 10:50:06 10:54:01 56° 54° (NE) 10:57:53 437.485
POLYITAN 1 30 Jun 10:52:25 10:56:04 30° 69° (ENE) 10:59:46 437.675
PHONESAT 2.4 30 Jun 10:55:21 10:57:49 22° 204° (SSW) 11:00:18 2401.200-2431.200
DELFI C3 30 Jun 10:56:47 11:00:46 67° 284° (WNW) 11:04:41 145.870
AAUSAT CUBESAT 2 30 Jun 11:03:17 11:05:00 12° 297° (WNW) 11:06:42 437.432
CUBEBUG 2 30 Jun 11:07:40 11:10:26 16° 296° (WNW) 11:13:14 437.445
ESTCUBE 1 30 Jun 11:08:07 11:10:02 12° 90° (E) 11:11:57 437.505/2401.250
M-CUBED/EXP-1 PRIME 30 Jun 11:11:16 11:14:23 23° 296° (WNW) 11:17:40 437.505
ANTELSAT 30 Jun 11:22:00 11:25:24 22° 266° (W) 11:28:53 437.575/2403.000
ZACube-1 30 Jun 11:24:55 11:28:16 21° 294° (WNW) 11:31:39 437.345
HO-68 30 Jun 11:30:05 11:33:25 14° 310° (NW) 11:36:45 435.675
Oscar 11 30 Jun 11:31:33 11:34:12 16° 296° (WNW) 11:36:51 145.826/435.025
BEESAT 2 30 Jun 11:31:50 11:35:51 85° 61° (ENE) 11:39:49 435.950
BUGSAT 1 30 Jun 11:36:42 11:40:23 36° 71° (ENE) 11:44:04 437.445
FUNcube-1 30 Jun 11:41:59 11:44:37 15° 297° (WNW) 11:47:15 145.935
RS-15 30 Jun 11:42:04 11:53:17 69° 116° (ESE) 12:05:10 29.354- 29.394
CUBEBUG 1 30 Jun 11:44:54 11:48:09 20° 94° (E) 11:51:23 437.445
O/OREOS (USA 219) 30 Jun 11:57:25 12:01:44 44° 63° (ENE) 12:06:02 437.305
VELOX 1 30 Jun 11:57:57 12:01:38 26° 96° (E) 12:05:17 145.980
JAS-2 30 Jun 11:59:08 12:06:18 48° 69° (ENE) 12:12:49 435.910
NANOSAT C BR1 30 Jun 12:04:39 12:08:38 43° 261° (W) 12:12:39 145.865
QB50P1 30 Jun 12:08:58 12:12:50 37° 262° (W) 12:16:46 145.935-145.965
PCSat 30 Jun 12:11:10 12:15:50 30° 251° (WSW) 12:20:29 145.827
POPSAT HIP 1 30 Jun 12:12:28 12:16:17 34° 263° (W) 12:20:08 437.405
ISS 30 Jun 12:15:25 12:17:39 17° 8° (N) 12:19:53 145.825
HUMSAT D 30 Jun 12:20:46 12:23:53 20° 294° (WNW) 12:27:00 437.325/437.525
DUCHIFAT 1 30 Jun 12:24:43 12:28:19 28° 264° (W) 12:31:56 145.980
Cosmos 2504 30 Jun 12:25:25 12:29:45 15° 74° (ENE) 12:34:10 435.465 / 435.565
SPROUT 30 Jun 12:25:50 12:29:17 23° 94° (E) 12:32:41 437.525
QB50P2 30 Jun 12:25:52 12:29:15 23° 265° (W) 12:32:40 145.880/145.840
UKube-1 30 Jun 12:27:55 12:31:49 33° 97° (E) 12:35:42 .
POLYITAN 1 30 Jun 12:28:33 12:31:53 23° 265° (W) 12:35:16 437.675
YUBILEINY 30 Jun 12:28:50 12:37:14 56° 90° (E) 12:45:43 435.215
BEESAT 3 30 Jun 12:29:20 12:31:14 13° 250° (WSW) 12:33:07 437.485
AIST 2 30 Jun 12:30:53 12:34:16 23° 46° (NE) 12:37:38 435.215
AISAT 30 Jun 12:38:31 12:42:56 76° 103° (ESE) 12:47:19 437.250
50 SAT 30 Jun 12:39:32 12:43:14 89° 281° (WNW) 12:46:54 437.505
ESTCUBE 1 30 Jun 12:42:48 12:47:15 63° 287° (WNW) 12:51:41 437.505/2401.250
Cosmos 2491 30 Jun 12:44:29 12:52:54 56° 270° (W) 13:01:18 435.465 / 435.565
DX 1 30 Jun 12:51:22 12:55:44 76° 104° (ESE) 13:00:03 434.975-435.025
Oscar 19 30 Jun 13:11:00 13:16:03 62° 73° (ENE) 13:21:08 437.125/150
BUGSAT 1 30 Jun 13:13:10 13:15:54 17° 267° (W) 13:18:37 437.445
CUBEBUG 1 30 Jun 13:20:35 13:24:32 35° 290° (WNW) 13:28:28 437.445
VELOX 1 30 Jun 13:34:15 13:38:04 30° 292° (WNW) 13:41:53 145.980
O/OREOS (USA 219) 30 Jun 13:37:45 13:40:46 18° 259° (W) 13:43:48 437.305
TISAT 1 30 Jun 13:38:13 13:42:06 35° 98° (E) 13:45:59 437.305
ITAMSAT 1 30 Jun 13:39:43 13:43:24 20° 62° (ENE) 13:47:04 435.822/435.867
AO-7 30 Jun 13:41:42 13:47:26 21° 50° (NE) 13:53:11 29.400- 29.500
Gurwin Techsat 1B 30 Jun 13:44:25 13:49:35 56° 72° (ENE) 13:54:48 435.225
JAS-2 30 Jun 13:44:35 13:51:23 35° 264° (W) 13:57:40 435.910
ISS 30 Jun 13:51:35 13:54:43 42° 28° (NNE) 13:57:52 145.825
BEESAT 30 Jun 13:55:26 13:56:15 10° 88° (E) 13:57:03 436.000
RS-15 30 Jun 13:55:43 14:06:36 43° 322° (NW) 14:18:03 29.354- 29.394
ITUPSAT 1 30 Jun 13:57:30 13:58:43 11° 89° (E) 13:59:56 437.325
SPROUT 30 Jun 14:01:27 14:05:15 31° 290° (WNW) 14:09:02 437.525
UKube-1 30 Jun 14:04:18 14:07:42 23° 294° (WNW) 14:11:05 .
AIST 2 30 Jun 14:08:59 14:12:52 39° 243° (WSW) 14:16:44 435.215
SO-50 30 Jun 14:09:38 14:10:38 11° 106° (ESE) 14:11:38 436.795
Cosmos 2504 30 Jun 14:13:22 14:21:30 79° 95° (E) 14:30:16 435.465 / 435.565
AISAT 30 Jun 14:17:19 14:18:47 12° 299° (WNW) 14:20:16 437.250
YUBILEINY 30 Jun 14:26:46 14:34:25 33° 291° (WNW) 14:42:10 435.215
DX 1 30 Jun 14:29:58 14:31:17 11° 300° (WNW) 14:32:36 434.975-435.025
Oscar 19 30 Jun 14:52:39 14:55:47 16° 269° (W) 14:58:57 437.125/150
SWISSCUBE 30 Jun 15:04:47 15:09:33 62° 101° (ESE) 15:14:17 437.505
TISAT 1 30 Jun 15:14:24 15:17:32 21° 294° (WNW) 15:20:39 437.305
ITAMSAT 1 30 Jun 15:17:17 15:22:24 57° 259° (W) 15:27:35 435.822/435.867
Gurwin Techsat 1B 30 Jun 15:26:11 15:29:53 19° 268° (W) 15:33:36 435.225
ISS 30 Jun 15:28:18 15:31:01 24° 225° (SW) 15:33:44 145.825
BEESAT 30 Jun 15:29:48 15:34:37 83° 286° (WNW) 15:39:24 436.000
AO-7 30 Jun 15:30:41 15:39:02 84° 71° (ENE) 15:47:27 29.400- 29.500
ITUPSAT 1 30 Jun 15:32:19 15:37:08 80° 285° (WNW) 15:41:56 437.325
KKS-1 30 Jun 15:44:46 15:47:43 17° 93° (E) 15:50:38 437.445
SO-50 30 Jun 15:45:28 15:50:22 86° 120° (ESE) 15:55:16 436.795
MOZHAYETS 4 30 Jun 15:50:30 15:53:52 19° 93° (E) 15:57:11
HORYU 2 30 Jun 16:08:02 16:11:49 28° 67° (ENE) 16:15:38 437.375
Cosmos 2504 30 Jun 16:09:37 16:15:58 23° 297° (WNW) 16:22:38 435.465 / 435.565
STARS 30 Jun 16:11:02 16:13:50 16° 92° (E) 16:16:37 437.465
RS-15 30 Jun 16:14:16 16:23:32 24° 355° (N) 16:33:02 29.354- 29.394
GONETS M04 30 Jun 16:36:46 16:40:12 13° 73° (ENE) 16:43:37
CUTE-I 30 Jun 16:38:08 16:39:44 11° 56° (NE) 16:41:21 437.470
SWISSCUBE 30 Jun 16:43:57 16:46:50 16° 299° (WNW) 16:49:43 437.505
NOAA 15 30 Jun 16:56:14 17:00:15 22° 63° (ENE) 17:04:16 137.62
Cosmos 2499 30 Jun 16:57:39 16:59:50 11° 71° (ENE) 17:02:03 435.465 / 435.565
AIST 1 30 Jun 17:02:36 17:06:55 74° 95° (E) 17:11:12
BEESAT 30 Jun 17:10:54 17:11:36 10° 302° (WNW) 17:12:18 436.000
ITUPSAT 1 30 Jun 17:14:06 17:14:08 10° 303° (WNW) 17:14:10 437.325
KKS-1 30 Jun 17:20:14 17:24:29 45° 289° (WNW) 17:28:44 437.445
BRITE-PL 30 Jun 17:21:13 17:25:32 31° 70° (ENE) 17:29:34 437.365/2234.400
CUBESAT XI-V 30 Jun 17:23:55 17:27:30 22° 93° (E) 17:31:02 437.345
MOZHAYETS 4 30 Jun 17:26:49 17:31:12 43° 289° (WNW) 17:35:34
AO-7 30 Jun 17:26:50 17:32:42 21° 269° (W) 17:38:37 29.400- 29.500
SO-50 30 Jun 17:28:15 17:31:30 17° 322° (NW) 17:34:45 436.795
Cubesat XI-IV 30 Jun 17:40:25 17:45:20 39° 68° (ENE) 17:50:18 437.490
GOMX 1 30 Jun 17:44:06 17:47:35 22° 68° (ENE) 17:50:57 467.674
HORYU 2 30 Jun 17:44:31 17:48:19 27° 264° (W) 17:52:08 437.375
LilacSat-2 30 Jun 17:45:15 17:48:36 31° 71° (ENE) 17:51:58 437.200
STARS 30 Jun 17:46:12 17:50:25 47° 289° (WNW) 17:54:39 437.465
